Wetterdaten: Samstag, 07.09.2013
Datum Zeit Temperatur Luftfeuchte Luftdruck Regen Wind Richtung Richtung Taupunkt Windchill Windben
07.09.2013 00:04 16,5 C 89 % 1017,9 hPa 0,0 l/m 1,3 km/h (1 Bft) S-SO 157 14,7 C 16,4 C 2,9 km/h (1 Bft)
07.09.2013 00:09 16,4 C 90 % 1017,9 hPa 0,0 l/m 1,4 km/h (1 Bft) N 360 14,8 C 16,4 C 2,7 km/h (1 Bft)
07.09.2013 00:14 16,3 C 90 % 1017,9 hPa 0,0 l/m 1,0 km/h (0 Bft) N 360 14,7 C 16,4 C 0,0 km/h (0 Bft)
07.09.2013 00:19 16,2 C 90 % 1017,8 hPa 0,0 l/m 0,5 km/h (0 Bft) NO 45 14,6 C 16,3 C 0,0 km/h (0 Bft)
07.09.2013 00:24 16,2 C 90 % 1017,8 hPa 0,0 l/m 0,6 km/h (0 Bft) NO 45 14,6 C 16,2 C 2,4 km/h (1 Bft)
07.09.2013 00:29 16,1 C 90 % 1017,8 hPa 0,0 l/m 0,6 km/h (0 Bft) O-NO 67 14,5 C 16,2 C 0,0 km/h (0 Bft)
07.09.2013 00:34 16,0 C 90 % 1017,8 hPa 0,0 l/m 0,8 km/h (0 Bft) S-SW 202 14,4 C 16,1 C 3,9 km/h (1 Bft)
07.09.2013 00:39 16,1 C 91 % 1017,9 hPa 0,0 l/m 1,6 km/h (1 Bft) O 90 14,6 C 16,1 C 0,0 km/h (0 Bft)
07.09.2013 00:44 16,1 C 91 % 1017,9 hPa 0,0 l/m 2,4 km/h (1 Bft) S-SO 157 14,6 C 16,2 C 5,6 km/h (1 Bft)
07.09.2013 00:49 16,2 C 91 % 1017,9 hPa 0,0 l/m 2,7 km/h (1 Bft) S-SO 157 14,7 C 16,2 C 3,4 km/h (1 Bft)
07.09.2013 00:54 16,1 C 91 % 1017,9 hPa 0,0 l/m 3,4 km/h (1 Bft) O-SO 112 14,6 C 16,4 C 0,0 km/h (0 Bft)
07.09.2013 00:59 16,1 C 91 % 1017,9 hPa 0,0 l/m 1,9 km/h (1 Bft) NO 45 14,6 C 16,3 C 3,9 km/h (1 Bft)
07.09.2013 01:04 16,2 C 91 % 1017,9 hPa 0,0 l/m 1,8 km/h (1 Bft) NO 45 14,7 C 16,2 C 2,6 km/h (1 Bft)
07.09.2013 01:09 16,4 C 91 % 1017,9 hPa 0,0 l/m 2,3 km/h (1 Bft) O-NO 67 14,9 C 16,1 C 3,5 km/h (1 Bft)
07.09.2013 01:14 16,4 C 91 % 1017,9 hPa 0,0 l/m 2,4 km/h (1 Bft) O 90 14,9 C 16,2 C 3,1 km/h (1 Bft)
07.09.2013 01:19 16,2 C 91 % 1017,9 hPa 0,0 l/m 2,4 km/h (1 Bft) O-NO 67 14,7 C 16,2 C 0,0 km/h (0 Bft)
07.09.2013 01:24 15,9 C 92 % 1017,9 hPa 0,0 l/m 1,0 km/h (0 Bft) NO 45 14,6 C 16,0 C 2,4 km/h (1 Bft)
07.09.2013 01:29 15,7 C 92 % 1017,9 hPa 0,0 l/m 0,3 km/h (0 Bft) NO 45 14,4 C 15,8 C 0,0 km/h (0 Bft)
07.09.2013 01:34 15,5 C 92 % 1017,9 hPa 0,0 l/m 1,1 km/h (1 Bft) O 90 14,2 C 15,6 C 2,3 km/h (1 Bft)
07.09.2013 01:39 15,4 C 92 % 1018,0 hPa 0,0 l/m 1,6 km/h (1 Bft) O 90 14,1 C 15,5 C 1,8 km/h (1 Bft)
07.09.2013 01:44 15,2 C 92 % 1018,0 hPa 0,0 l/m 1,4 km/h (1 Bft) O-NO 67 13,9 C 15,3 C 0,0 km/h (0 Bft)
07.09.2013 01:49 15,1 C 92 % 1018,0 hPa 0,0 l/m 0,8 km/h (0 Bft) SO 135 13,8 C 15,2 C 0,0 km/h (0 Bft)
07.09.2013 01:54 14,9 C 92 % 1018,0 hPa 0,0 l/m 0,2 km/h (0 Bft) SO 135 13,6 C 15,0 C 0,0 km/h (0 Bft)
07.09.2013 01:58 14,9 C 92 % 1018,0 hPa 0,0 l/m 0,2 km/h (0 Bft) SO 135 13,6 C 15,0 C 0,0 km/h (0 Bft)
07.09.2013 02:00 14,7 C 92 % 1018,1 hPa 0,0 l/m 0,0 km/h (0 Bft) SW 225 13,4 C 14,9 C 0,0 km/h (0 Bft)
07.09.2013 02:05 14,6 C 92 % 1018,1 hPa 0,0 l/m 0,0 km/h (0 Bft) N-NW 337 13,3 C 14,8 C 0,0 km/h (0 Bft)
07.09.2013 02:10 14,5 C 92 % 1018,1 hPa 0,0 l/m 0,0 km/h (0 Bft) W-SW 247 13,2 C 14,7 C 0,0 km/h (0 Bft)
07.09.2013 02:15 14,4 C 93 % 1018,1 hPa 0,0 l/m 0,0 km/h (0 Bft) W-SW 247 13,3 C 14,6 C 0,0 km/h (0 Bft)
07.09.2013 02:20 14,4 C 93 % 1018,0 hPa 0,0 l/m 0,3 km/h (0 Bft) SW 225 13,3 C 14,6 C 3,1 km/h (1 Bft)
07.09.2013 02:25 14,5 C 93 % 1018,0 hPa 0,0 l/m 1,0 km/h (0 Bft) W-SW 247 13,4 C 14,9 C 0,0 km/h (0 Bft)
07.09.2013 02:30 14,5 C 93 % 1018,0 hPa 0,0 l/m 1,1 km/h (1 Bft) W-NW 292 13,4 C 14,8 C 0,0 km/h (0 Bft)
07.09.2013 02:35 14,4 C 93 % 1018,0 hPa 0,0 l/m 0,3 km/h (0 Bft) N 360 13,3 C 14,5 C 0,0 km/h (0 Bft)
07.09.2013 02:40 14,4 C 93 % 1018,2 hPa 0,0 l/m 0,0 km/h (0 Bft) NO 45 13,3 C 14,4 C 0,0 km/h (0 Bft)
07.09.2013 02:45 14,2 C 93 % 1018,2 hPa 0,0 l/m 0,0 km/h (0 Bft) NO 45 13,1 C 14,2 C 0,0 km/h (0 Bft)
07.09.2013 02:50 14,0 C 93 % 1018,2 hPa 0,0 l/m 0,0 km/h (0 Bft) NO 45 12,9 C 14,1 C 0,0 km/h (0 Bft)
07.09.2013 02:55 13,8 C 93 % 1018,2 hPa 0,0 l/m 0,0 km/h (0 Bft) N 360 12,7 C 13,9 C 0,0 km/h (0 Bft)
07.09.2013 03:00 13,7 C 93 % 1018,2 hPa 0,0 l/m 0,0 km/h (0 Bft) NO 45 12,6 C 13,7 C 0,0 km/h (0 Bft)
07.09.2013 03:05 13,8 C 93 % 1018,2 hPa 0,0 l/m 0,0 km/h (0 Bft) NO 45 12,7 C 13,7 C 0,0 km/h (0 Bft)
07.09.2013 03:10 13,7 C 93 % 1018,2 hPa 0,0 l/m 0,2 km/h (0 Bft) S 180 12,6 C 13,8 C 2,3 km/h (1 Bft)
07.09.2013 03:15 13,9 C 93 % 1018,2 hPa 0,0 l/m 1,3 km/h (1 Bft) S 180 12,8 C 14,0 C 2,9 km/h (1 Bft)
07.09.2013 03:20 14,0 C 93 % 1018,3 hPa 0,0 l/m 1,3 km/h (1 Bft) W-NW 292 12,9 C 14,1 C 0,0 km/h (0 Bft)
07.09.2013 03:25 13,8 C 94 % 1018,3 hPa 0,0 l/m 0,2 km/h (0 Bft) NO 45 12,9 C 14,1 C 0,0 km/h (0 Bft)
07.09.2013 03:30 13,8 C 94 % 1018,3 hPa 0,0 l/m 0,0 km/h (0 Bft) N 360 12,9 C 14,0 C 0,0 km/h (0 Bft)
07.09.2013 03:35 13,7 C 94 % 1018,3 hPa 0,0 l/m 0,0 km/h (0 Bft) S-SO 157 12,8 C 14,0 C 1,6 km/h (1 Bft)
07.09.2013 03:40 13,7 C 94 % 1018,2 hPa 0,0 l/m 0,2 km/h (0 Bft) S 180 12,8 C 14,0 C 0,0 km/h (0 Bft)
07.09.2013 03:45 13,5 C 94 % 1018,2 hPa 0,0 l/m 0,2 km/h (0 Bft) S-SW 202 12,6 C 13,9 C 0,0 km/h (0 Bft)
07.09.2013 03:50 13,4 C 94 % 1018,2 hPa 0,0 l/m 0,0 km/h (0 Bft) S-SW 202 12,5 C 13,7 C 0,0 km/h (0 Bft)
07.09.2013 03:55 13,3 C 94 % 1018,2 hPa 0,0 l/m 0,0 km/h (0 Bft) O-SO 112 12,4 C 13,5 C 0,0 km/h (0 Bft)
07.09.2013 04:00 13,2 C 94 % 1018,4 hPa 0,0 l/m 0,0 km/h (0 Bft) W 270 12,3 C 13,4 C 0,0 km/h (0 Bft)
07.09.2013 04:05 13,0 C 94 % 1018,4 hPa 0,0 l/m 0,0 km/h (0 Bft) N-NW 337 12,1 C 13,2 C 0,0 km/h (0 Bft)
07.09.2013 04:10 13,0 C 94 % 1018,4 hPa 0,0 l/m 0,0 km/h (0 Bft) NW 315 12,1 C 13,1 C 0,0 km/h (0 Bft)
07.09.2013 04:15 12,7 C 95 % 1018,4 hPa 0,0 l/m 0,0 km/h (0 Bft) N-NW 337 11,9 C 12,9 C 0,0 km/h (0 Bft)
07.09.2013 04:20 12,7 C 95 % 1018,4 hPa 0,0 l/m 0,0 km/h (0 Bft) N-NW 337 11,9 C 12,7 C 0,0 km/h (0 Bft)
07.09.2013 04:25 12,6 C 95 % 1018,4 hPa 0,0 l/m 0,0 km/h (0 Bft) N 360 11,8 C 12,6 C 0,0 km/h (0 Bft)
07.09.2013 04:30 12,6 C 95 % 1018,4 hPa 0,0 l/m 0,0 km/h (0 Bft) N 360 11,8 C 12,5 C 0,0 km/h (0 Bft)
07.09.2013 04:35 12,7 C 95 % 1018,4 hPa 0,0 l/m 0,0 km/h (0 Bft) N 360 11,9 C 12,6 C 0,0 km/h (0 Bft)
07.09.2013 04:40 12,4 C 95 % 1018,6 hPa 0,0 l/m 0,0 km/h (0 Bft) NW 315 11,6 C 12,6 C 0,0 km/h (0 Bft)
07.09.2013 04:45 12,5 C 95 % 1018,6 hPa 0,0 l/m 0,0 km/h (0 Bft) N-NO 22 11,7 C 12,5 C 1,8 km/h (1 Bft)
07.09.2013 04:50 12,5 C 95 % 1018,6 hPa 0,0 l/m 0,0 km/h (0 Bft) O-NO 67 11,7 C 12,5 C 0,0 km/h (0 Bft)
07.09.2013 04:55 12,4 C 95 % 1018,6 hPa 0,0 l/m 0,0 km/h (0 Bft) NO 45 11,6 C 12,4 C 0,0 km/h (0 Bft)
07.09.2013 05:00 12,3 C 95 % 1018,6 hPa 0,0 l/m 0,0 km/h (0 Bft) W 270 11,5 C 12,4 C 0,0 km/h (0 Bft)
07.09.2013 05:05 12,3 C 95 % 1018,6 hPa 0,0 l/m 0,0 km/h (0 Bft) W 270 11,5 C 12,4 C 0,0 km/h (0 Bft)
07.09.2013 05:10 12,4 C 95 % 1018,6 hPa 0,0 l/m 0,0 km/h (0 Bft) O 90 11,6 C 12,4 C 0,0 km/h (0 Bft)
07.09.2013 05:15 12,3 C 95 % 1018,6 hPa 0,0 l/m 0,0 km/h (0 Bft) NO 45 11,5 C 12,4 C 0,0 km/h (0 Bft)
07.09.2013 05:20 12,3 C 95 % 1018,8 hPa 0,0 l/m 0,0 km/h (0 Bft) O 90 11,5 C 12,4 C 0,0 km/h (0 Bft)
07.09.2013 05:25 12,2 C 95 % 1018,8 hPa 0,0 l/m 0,0 km/h (0 Bft) SO 135 11,4 C 12,3 C 0,0 km/h (0 Bft)
07.09.2013 05:30 12,3 C 95 % 1018,8 hPa 0,0 l/m 0,0 km/h (0 Bft) NO 45 11,5 C 12,2 C 0,0 km/h (0 Bft)
07.09.2013 05:35 12,2 C 95 % 1018,8 hPa 0,0 l/m 0,2 km/h (0 Bft) W-NW 292 11,4 C 12,4 C 0,0 km/h (0 Bft)
07.09.2013 05:40 12,3 C 95 % 1019,1 hPa 0,0 l/m 0,3 km/h (0 Bft) O-NO 67 11,5 C 12,3 C 0,0 km/h (0 Bft)
07.09.2013 05:45 12,3 C 95 % 1019,1 hPa 0,0 l/m 0,2 km/h (0 Bft) O-NO 67 11,5 C 12,2 C 0,0 km/h (0 Bft)
07.09.2013 05:50 12,3 C 95 % 1019,1 hPa 0,0 l/m 0,2 km/h (0 Bft) O 90 11,5 C 12,2 C 2,7 km/h (1 Bft)
07.09.2013 05:55 12,5 C 95 % 1019,1 hPa 0,0 l/m 1,1 km/h (1 Bft) O 90 11,7 C 12,3 C 0,0 km/h (0 Bft)
07.09.2013 06:00 12,5 C 95 % 1019,4 hPa 0,0 l/m 1,6 km/h (1 Bft) O 90 11,7 C 12,4 C 2,6 km/h (1 Bft)
07.09.2013 06:05 12,6 C 95 % 1019,4 hPa 0,0 l/m 0,6 km/h (0 Bft) O-NO 67 11,8 C 12,4 C 0,0 km/h (0 Bft)
07.09.2013 06:10 12,7 C 95 % 1019,4 hPa 0,0 l/m 0,2 km/h (0 Bft) O 90 11,9 C 12,4 C 0,0 km/h (0 Bft)
07.09.2013 06:15 12,4 C 95 % 1019,4 hPa 0,0 l/m 0,0 km/h (0 Bft) W-NW 292 11,6 C 12,4 C 0,0 km/h (0 Bft)
07.09.2013 06:20 12,4 C 95 % 1019,4 hPa 0,0 l/m 0,0 km/h (0 Bft) O-SO 112 11,6 C 12,3 C 0,0 km/h (0 Bft)
07.09.2013 06:25 12,5 C 95 % 1019,4 hPa 0,0 l/m 0,3 km/h (0 Bft) N-NO 22 11,7 C 12,3 C 1,9 km/h (1 Bft)
07.09.2013 06:30 12,4 C 95 % 1019,4 hPa 0,0 l/m 0,3 km/h (0 Bft) N 360 11,6 C 12,3 C 0,0 km/h (0 Bft)
07.09.2013 06:35 12,2 C 95 % 1019,4 hPa 0,0 l/m 0,2 km/h (0 Bft) N-NW 337 11,4 C 12,2 C 0,0 km/h (0 Bft)
07.09.2013 06:40 12,0 C 95 % 1019,4 hPa 0,0 l/m 0,0 km/h (0 Bft) NO 45 11,2 C 12,2 C 0,0 km/h (0 Bft)
07.09.2013 06:45 12,0 C 95 % 1019,4 hPa 0,0 l/m 0,0 km/h (0 Bft) NO 45 11,2 C 12,0 C 0,0 km/h (0 Bft)
07.09.2013 06:50 12,0 C 95 % 1019,4 hPa 0,0 l/m 0,0 km/h (0 Bft) NO 45 11,2 C 11,9 C 0,0 km/h (0 Bft)
07.09.2013 06:55 11,9 C 95 % 1019,4 hPa 0,0 l/m 0,0 km/h (0 Bft) NO 45 11,1 C 11,9 C 0,0 km/h (0 Bft)
07.09.2013 07:00 12,1 C 95 % 1019,8 hPa 0,0 l/m 0,0 km/h (0 Bft) NO 45 11,3 C 11,9 C 0,0 km/h (0 Bft)
07.09.2013 07:05 12,3 C 95 % 1019,8 hPa 0,0 l/m 0,3 km/h (0 Bft) NO 45 11,5 C 12,1 C 2,4 km/h (1 Bft)
07.09.2013 07:10 12,4 C 95 % 1019,8 hPa 0,0 l/m 0,3 km/h (0 Bft) NW 315 11,6 C 12,3 C 0,0 km/h (0 Bft)
07.09.2013 07:15 12,4 C 95 % 1019,8 hPa 0,0 l/m 0,3 km/h (0 Bft) O-SO 112 11,6 C 12,4 C 0,0 km/h (0 Bft)
07.09.2013 07:20 13,3 C 94 % 1019,9 hPa 0,0 l/m 1,3 km/h (1 Bft) O 90 12,4 C 12,7 C 3,2 km/h (1 Bft)
07.09.2013 07:25 14,0 C 94 % 1019,9 hPa 0,0 l/m 2,4 km/h (1 Bft) O 90 13,0 C 13,1 C 3,7 km/h (1 Bft)
07.09.2013 07:30 13,7 C 94 % 1019,9 hPa 0,0 l/m 1,8 km/h (1 Bft) N-NO 22 12,8 C 13,4 C 0,0 km/h (0 Bft)
07.09.2013 07:35 13,7 C 94 % 1019,9 hPa 0,0 l/m 0,8 km/h (0 Bft) O-SO 112 12,8 C 13,8 C 0,0 km/h (0 Bft)
07.09.2013 07:40 13,8 C 94 % 1020,1 hPa 0,0 l/m 0,5 km/h (0 Bft) NO 45 12,9 C 14,0 C 0,0 km/h (0 Bft)
07.09.2013 07:45 13,5 C 94 % 1020,1 hPa 0,0 l/m 0,2 km/h (0 Bft) N-NO 22 12,6 C 14,0 C 0,0 km/h (0 Bft)
07.09.2013 07:50 13,6 C 94 % 1020,1 hPa 0,0 l/m 0,0 km/h (0 Bft) N 360 12,7 C 14,1 C 0,0 km/h (0 Bft)
07.09.2013 07:55 13,6 C 94 % 1020,1 hPa 0,0 l/m 0,2 km/h (0 Bft) W-SW 247 12,7 C 14,2 C 0,0 km/h (0 Bft)
07.09.2013 08:00 14,0 C 94 % 1020,1 hPa 0,0 l/m 0,3 km/h (0 Bft) SO 135 13,0 C 14,4 C 0,0 km/h (0 Bft)
07.09.2013 08:05 15,0 C 94 % 1020,1 hPa 0,0 l/m 1,6 km/h (1 Bft) O 90 14,0 C 15,7 C 2,9 km/h (1 Bft)
07.09.2013 08:10 15,8 C 94 % 1020,1 hPa 0,0 l/m 1,8 km/h (1 Bft) NO 45 14,8 C 17,1 C 8,4 km/h (2 Bft)
07.09.2013 08:15 18,6 C 91 % 1020,1 hPa 0,0 l/m 1,1 km/h (1 Bft) O 90 17,1 C 18,7 C 3,1 km/h (1 Bft)
07.09.2013 08:20 19,3 C 89 % 1020,3 hPa 0,0 l/m 1,3 km/h (1 Bft) S 180 17,4 C 19,4 C 4,7 km/h (1 Bft)
07.09.2013 08:25 20,0 C 85 % 1020,3 hPa 0,0 l/m 1,8 km/h (1 Bft) O-SO 112 17,4 C 20,1 C 4,8 km/h (1 Bft)
07.09.2013 08:30 20,3 C 81 % 1020,3 hPa 0,0 l/m 1,4 km/h (1 Bft) O 90 16,9 C 20,9 C 2,4 km/h (1 Bft)
07.09.2013 08:35 20,9 C 78 % 1020,3 hPa 0,0 l/m 1,4 km/h (1 Bft) O-NO 67 16,9 C 21,5 C 2,7 km/h (1 Bft)
07.09.2013 08:40 20,8 C 76 % 1020,5 hPa 0,0 l/m 2,1 km/h (1 Bft) S 180 16,4 C 21,7 C 1,8 km/h (1 Bft)
07.09.2013 08:45 21,0 C 74 % 1020,5 hPa 0,0 l/m 1,6 km/h (1 Bft) O-SO 112 16,2 C 22,3 C 0,0 km/h (0 Bft)
07.09.2013 08:50 21,6 C 76 % 1020,5 hPa 0,0 l/m 0,8 km/h (0 Bft) NO 45 17,2 C 22,6 C 2,3 km/h (1 Bft)
07.09.2013 08:55 22,1 C 75 % 1020,5 hPa 0,0 l/m 1,1 km/h (1 Bft) S-SO 157 17,5 C 23,1 C 5,8 km/h (2 Bft)
07.09.2013 09:00 22,1 C 72 % 1020,7 hPa 0,0 l/m 2,9 km/h (1 Bft) O 90 16,8 C 23,1 C 3,4 km/h (1 Bft)
07.09.2013 09:05 21,8 C 70 % 1020,7 hPa 0,0 l/m 4,3 km/h (1 Bft) W-SW 247 16,1 C 22,8 C 3,1 km/h (1 Bft)
07.09.2013 09:10 22,4 C 74 % 1020,7 hPa 0,0 l/m 3,7 km/h (1 Bft) SO 135 17,5 C 23,1 C 11,7 km/h (2 Bft)
07.09.2013 09:15 22,5 C 69 % 1020,7 hPa 0,0 l/m 3,5 km/h (1 Bft) W-SW 247 16,5 C 23,3 C 3,4 km/h (1 Bft)
07.09.2013 09:20 23,2 C 72 % 1020,9 hPa 0,0 l/m 4,0 km/h (1 Bft) O-SO 112 17,9 C 23,3 C 12,7 km/h (3 Bft)
07.09.2013 09:25 23,0 C 68 % 1020,9 hPa 0,0 l/m 4,5 km/h (1 Bft) S-SO 157 16,8 C 23,4 C 4,5 km/h (1 Bft)
07.09.2013 09:30 23,7 C 67 % 1020,9 hPa 0,0 l/m 4,7 km/h (1 Bft) S 180 17,2 C 23,5 C 5,3 km/h (1 Bft)
07.09.2013 09:35 23,4 C 65 % 1020,9 hPa 0,0 l/m 4,3 km/h (1 Bft) S 180 16,4 C 23,8 C 2,9 km/h (1 Bft)
07.09.2013 09:40 23,9 C 69 % 1021,2 hPa 0,0 l/m 4,7 km/h (1 Bft) SW 225 17,9 C 23,9 C 5,3 km/h (1 Bft)
07.09.2013 09:45 23,7 C 63 % 1021,2 hPa 0,0 l/m 5,3 km/h (1 Bft) S-SO 157 16,2 C 23,8 C 9,5 km/h (2 Bft)
07.09.2013 09:50 24,1 C 64 % 1021,2 hPa 0,0 l/m 6,0 km/h (2 Bft) SO 135 16,9 C 23,8 C 14,8 km/h (3 Bft)
07.09.2013 09:55 24,0 C 59 % 1021,2 hPa 0,0 l/m 6,3 km/h (2 Bft) S 180 15,5 C 24,1 C 9,5 km/h (2 Bft)
07.09.2013 10:00 24,0 C 59 % 1021,5 hPa 0,0 l/m 6,4 km/h (2 Bft) S 180 15,5 C 23,8 C 4,5 km/h (1 Bft)
07.09.2013 10:05 24,4 C 56 % 1021,5 hPa 0,0 l/m 5,5 km/h (1 Bft) S 180 15,0 C 24,4 C 12,1 km/h (2 Bft)
07.09.2013 10:10 24,3 C 54 % 1021,5 hPa 0,0 l/m 5,5 km/h (1 Bft) S 180 14,4 C 24,4 C 10,3 km/h (2 Bft)
07.09.2013 10:15 24,2 C 55 % 1021,5 hPa 0,0 l/m 5,6 km/h (1 Bft) S-SW 202 14,6 C 25,0 C 7,7 km/h (2 Bft)
07.09.2013 10:20 24,3 C 55 % 1021,6 hPa 0,0 l/m 3,9 km/h (1 Bft) SO 135 14,7 C 25,2 C 3,9 km/h (1 Bft)
07.09.2013 10:25 24,2 C 53 % 1021,6 hPa 0,0 l/m 3,9 km/h (1 Bft) S 180 14,0 C 25,7 C 3,7 km/h (1 Bft)
07.09.2013 10:30 24,7 C 54 % 1021,6 hPa 0,0 l/m 4,5 km/h (1 Bft) S-SW 202 14,8 C 25,6 C 9,5 km/h (2 Bft)
07.09.2013 10:35 25,1 C 51 % 1021,6 hPa 0,0 l/m 4,8 km/h (1 Bft) S-SW 202 14,2 C 25,8 C 7,2 km/h (2 Bft)
07.09.2013 10:40 24,7 C 51 % 1022,2 hPa 0,0 l/m 5,3 km/h (1 Bft) W-SW 247 13,9 C 25,7 C 5,8 km/h (2 Bft)
07.09.2013 10:45 25,6 C 48 % 1022,2 hPa 0,0 l/m 5,6 km/h (1 Bft) S-SW 202 13,8 C 25,2 C 5,0 km/h (1 Bft)
07.09.2013 10:50 25,7 C 48 % 1022,2 hPa 0,0 l/m 4,7 km/h (1 Bft) W-SW 247 13,9 C 24,9 C 4,5 km/h (1 Bft)
07.09.2013 10:55 25,4 C 48 % 1022,2 hPa 0,0 l/m 4,3 km/h (1 Bft) S 180 13,6 C 24,4 C 5,5 km/h (1 Bft)
07.09.2013 11:00 25,5 C 48 % 1022,3 hPa 0,0 l/m 5,1 km/h (1 Bft) W-NW 292 13,7 C 23,9 C 5,8 km/h (2 Bft)
07.09.2013 11:05 25,4 C 48 % 1022,3 hPa 0,0 l/m 6,4 km/h (2 Bft) S-SW 202 13,6 C 23,3 C 7,7 km/h (2 Bft)
07.09.2013 11:10 25,5 C 49 % 1022,3 hPa 0,0 l/m 6,8 km/h (2 Bft) W 270 14,0 C 23,0 C 6,3 km/h (2 Bft)
07.09.2013 11:15 26,0 C 47 % 1022,3 hPa 0,0 l/m 5,5 km/h (1 Bft) W 270 13,8 C 23,2 C 7,7 km/h (2 Bft)
07.09.2013 11:20 26,0 C 45 % 1022,6 hPa 0,0 l/m 5,5 km/h (1 Bft) S-SO 157 13,1 C 23,3 C 5,8 km/h (2 Bft)
07.09.2013 11:25 25,1 C 51 % 1022,6 hPa 0,0 l/m 6,8 km/h (2 Bft) S 180 14,2 C 23,5 C 10,0 km/h (2 Bft)
07.09.2013 11:30 25,6 C 51 % 1022,6 hPa 0,0 l/m 6,9 km/h (2 Bft) S-SW 202 14,7 C 23,7 C 12,2 km/h (2 Bft)
07.09.2013 11:35 25,8 C 49 % 1022,6 hPa 0,0 l/m 7,4 km/h (2 Bft) SO 135 14,3 C 24,2 C 9,3 km/h (2 Bft)
07.09.2013 11:40 25,1 C 52 % 1022,8 hPa 0,0 l/m 7,2 km/h (2 Bft) S 180 14,5 C 24,6 C 9,5 km/h (2 Bft)
07.09.2013 11:45 25,2 C 50 % 1022,8 hPa 0,0 l/m 6,6 km/h (2 Bft) S 180 14,0 C 25,0 C 11,7 km/h (2 Bft)
07.09.2013 11:50 25,7 C 48 % 1022,8 hPa 0,0 l/m 7,2 km/h (2 Bft) SO 135 13,9 C 24,8 C 11,1 km/h (2 Bft)
07.09.2013 11:55 25,6 C 48 % 1022,8 hPa 0,0 l/m 7,4 km/h (2 Bft) S 180 13,8 C 25,3 C 8,9 km/h (2 Bft)
07.09.2013 12:00 25,8 C 50 % 1022,8 hPa 0,0 l/m 6,4 km/h (2 Bft) N-NW 337 14,6 C 25,7 C 6,9 km/h (2 Bft)
07.09.2013 12:05 25,7 C 48 % 1022,8 hPa 0,0 l/m 6,9 km/h (2 Bft) SO 135 13,9 C 25,6 C 5,0 km/h (1 Bft)
07.09.2013 12:10 25,8 C 48 % 1022,8 hPa 0,0 l/m 7,6 km/h (2 Bft) S 180 13,9 C 25,5 C 9,2 km/h (2 Bft)
07.09.2013 12:15 27,0 C 47 % 1022,8 hPa 0,0 l/m 6,3 km/h (2 Bft) S-SW 202 14,7 C 26,2 C 11,4 km/h (2 Bft)
07.09.2013 12:20 26,7 C 48 % 1022,6 hPa 0,0 l/m 5,6 km/h (1 Bft) SO 135 14,8 C 26,4 C 6,9 km/h (2 Bft)
07.09.2013 12:25 26,5 C 48 % 1022,6 hPa 0,0 l/m 5,1 km/h (1 Bft) W-SW 247 14,6 C 26,9 C 5,3 km/h (1 Bft)
07.09.2013 12:30 26,5 C 47 % 1022,6 hPa 0,0 l/m 5,1 km/h (1 Bft) W-SW 247 14,3 C 27,0 C 7,9 km/h (2 Bft)
07.09.2013 12:35 24,2 C 51 % 1022,6 hPa 0,0 l/m 4,5 km/h (1 Bft) W-SW 247 13,4 C 26,5 C 3,5 km/h (1 Bft)
07.09.2013 12:40 25,5 C 51 % 1022,2 hPa 0,0 l/m 3,5 km/h (1 Bft) S-SW 202 14,6 C 26,0 C 2,3 km/h (1 Bft)
07.09.2013 12:45 24,2 C 53 % 1022,2 hPa 0,0 l/m 3,5 km/h (1 Bft) W 270 14,0 C 26,4 C 2,7 km/h (1 Bft)
07.09.2013 12:50 23,3 C 55 % 1022,2 hPa 0,0 l/m 3,5 km/h (1 Bft) S 180 13,7 C 25,4 C 2,1 km/h (1 Bft)
07.09.2013 12:55 25,3 C 52 % 1022,2 hPa 0,0 l/m 3,1 km/h (1 Bft) S-SO 157 14,7 C 25,3 C 4,8 km/h (1 Bft)
07.09.2013 13:00 25,9 C 52 % 1022,4 hPa 0,0 l/m 3,4 km/h (1 Bft) W-SW 247 15,3 C 26,5 C 10,3 km/h (2 Bft)
07.09.2013 13:05 23,8 C 55 % 1022,4 hPa 0,0 l/m 4,7 km/h (1 Bft) SW 225 14,2 C 26,3 C 6,1 km/h (2 Bft)
07.09.2013 13:10 23,4 C 56 % 1022,4 hPa 0,0 l/m 4,3 km/h (1 Bft) W 270 14,1 C 25,6 C 6,4 km/h (2 Bft)
07.09.2013 13:15 23,2 C 56 % 1022,4 hPa 0,0 l/m 4,2 km/h (1 Bft) W-SW 247 13,9 C 24,6 C 4,3 km/h (1 Bft)
07.09.2013 13:20 24,0 C 55 % 1022,5 hPa 0,0 l/m 5,1 km/h (1 Bft) W-SW 247 14,4 C 24,9 C 4,0 km/h (1 Bft)
07.09.2013 13:25 23,8 C 57 % 1022,5 hPa 0,0 l/m 3,4 km/h (1 Bft) W-NW 292 14,8 C 25,2 C 0,0 km/h (0 Bft)
07.09.2013 13:30 24,7 C 55 % 1022,5 hPa 0,0 l/m 2,4 km/h (1 Bft) S-SW 202 15,0 C 25,7 C 5,6 km/h (1 Bft)
07.09.2013 13:35 25,4 C 52 % 1022,5 hPa 0,0 l/m 3,2 km/h (1 Bft) NW 315 14,8 C 26,9 C 3,5 km/h (1 Bft)
07.09.2013 13:40 25,4 C 53 % 1022,6 hPa 0,0 l/m 3,4 km/h (1 Bft) S 180 15,1 C 27,4 C 2,4 km/h (1 Bft)
07.09.2013 13:45 26,0 C 50 % 1022,6 hPa 0,0 l/m 2,4 km/h (1 Bft) W-SW 247 14,8 C 28,0 C 4,8 km/h (1 Bft)
07.09.2013 13:50 25,7 C 49 % 1022,6 hPa 0,0 l/m 3,2 km/h (1 Bft) S 180 14,2 C 28,5 C 3,9 km/h (1 Bft)
07.09.2013 13:55 26,1 C 49 % 1022,6 hPa 0,0 l/m 3,5 km/h (1 Bft) W-SW 247 14,5 C 29,0 C 3,4 km/h (1 Bft)
07.09.2013 14:00 25,7 C 51 % 1022,4 hPa 0,0 l/m 2,9 km/h (1 Bft) W 270 14,8 C 29,2 C 6,4 km/h (2 Bft)
07.09.2013 14:05 25,6 C 49 % 1022,4 hPa 0,0 l/m 2,7 km/h (1 Bft) N-NO 22 14,1 C 29,3 C 4,2 km/h (1 Bft)
07.09.2013 14:10 25,8 C 52 % 1022,4 hPa 0,0 l/m 2,9 km/h (1 Bft) W-SW 247 15,2 C 29,6 C 2,3 km/h (1 Bft)
07.09.2013 14:15 27,3 C 49 % 1022,4 hPa 0,0 l/m 2,4 km/h (1 Bft) W 270 15,6 C 30,2 C 0,0 km/h (0 Bft)
07.09.2013 14:20 27,2 C 46 % 1022,4 hPa 0,0 l/m 2,6 km/h (1 Bft) W 270 14,6 C 30,6 C 3,5 km/h (1 Bft)
07.09.2013 14:25 26,7 C 46 % 1022,4 hPa 0,0 l/m 2,9 km/h (1 Bft) W-NW 292 14,1 C 30,4 C 3,5 km/h (1 Bft)
07.09.2013 14:30 26,9 C 45 % 1022,4 hPa 0,0 l/m 3,4 km/h (1 Bft) SW 225 13,9 C 30,1 C 4,3 km/h (1 Bft)
07.09.2013 14:35 27,1 C 43 % 1022,4 hPa 0,0 l/m 3,1 km/h (1 Bft) NO 45 13,4 C 31,0 C 1,9 km/h (1 Bft)
07.09.2013 14:40 26,8 C 46 % 1022,4 hPa 0,0 l/m 2,7 km/h (1 Bft) O-NO 67 14,2 C 31,6 C 4,2 km/h (1 Bft)
07.09.2013 14:45 26,8 C 48 % 1022,4 hPa 0,0 l/m 2,6 km/h (1 Bft) W-SW 247 14,9 C 31,5 C 7,2 km/h (2 Bft)
07.09.2013 14:50 26,5 C 49 % 1022,4 hPa 0,0 l/m 2,9 km/h (1 Bft) W-NW 292 14,9 C 29,9 C 3,4 km/h (1 Bft)
07.09.2013 14:55 25,3 C 51 % 1022,4 hPa 0,0 l/m 3,4 km/h (1 Bft) O-SO 112 14,4 C 28,2 C 4,3 km/h (1 Bft)
07.09.2013 15:00 24,2 C 54 % 1022,2 hPa 0,0 l/m 3,4 km/h (1 Bft) N-NW 337 14,3 C 27,2 C 3,4 km/h (1 Bft)
07.09.2013 15:05 24,5 C 56 % 1022,2 hPa 0,0 l/m 3,5 km/h (1 Bft) N 360 15,1 C 26,4 C 8,2 km/h (2 Bft)
07.09.2013 15:10 25,1 C 54 % 1022,2 hPa 0,0 l/m 3,7 km/h (1 Bft) N 360 15,1 C 27,2 C 7,2 km/h (2 Bft)
07.09.2013 15:15 25,6 C 53 % 1022,2 hPa 0,0 l/m 3,4 km/h (1 Bft) N-NW 337 15,3 C 28,7 C 6,6 km/h (2 Bft)
07.09.2013 15:20 25,8 C 53 % 1022,0 hPa 0,0 l/m 3,4 km/h (1 Bft) W 270 15,5 C 29,0 C 5,5 km/h (1 Bft)
07.09.2013 15:25 25,0 C 55 % 1022,0 hPa 0,0 l/m 4,3 km/h (1 Bft) W-SW 247 15,3 C 29,0 C 4,2 km/h (1 Bft)
07.09.2013 15:30 25,6 C 53 % 1022,0 hPa 0,0 l/m 4,0 km/h (1 Bft) W 270 15,3 C 29,0 C 6,0 km/h (2 Bft)
07.09.2013 15:35 26,0 C 50 % 1022,0 hPa 0,0 l/m 2,9 km/h (1 Bft) N-NW 337 14,8 C 29,7 C 0,0 km/h (0 Bft)
07.09.2013 15:40 25,1 C 54 % 1021,8 hPa 0,0 l/m 2,4 km/h (1 Bft) NO 45 15,1 C 30,3 C 3,2 km/h (1 Bft)
07.09.2013 15:45 24,2 C 57 % 1021,8 hPa 0,0 l/m 3,2 km/h (1 Bft) W-NW 292 15,1 C 28,2 C 2,3 km/h (1 Bft)
07.09.2013 15:50 24,1 C 58 % 1021,8 hPa 0,0 l/m 3,9 km/h (1 Bft) W-NW 292 15,3 C 27,2 C 4,8 km/h (1 Bft)
07.09.2013 15:55 24,0 C 57 % 1021,8 hPa 0,0 l/m 3,5 km/h (1 Bft) W-NW 292 14,9 C 26,8 C 5,5 km/h (1 Bft)
07.09.2013 16:00 23,6 C 58 % 1021,9 hPa 0,0 l/m 3,4 km/h (1 Bft) O 90 14,8 C 26,6 C 1,9 km/h (1 Bft)
07.09.2013 16:05 23,5 C 60 % 1021,9 hPa 0,0 l/m 1,8 km/h (1 Bft) O 90 15,3 C 26,4 C 2,3 km/h (1 Bft)
07.09.2013 16:10 24,0 C 59 % 1021,9 hPa 0,0 l/m 0,8 km/h (0 Bft) NO 45 15,5 C 26,8 C 2,3 km/h (1 Bft)
07.09.2013 16:15 24,1 C 58 % 1021,9 hPa 0,0 l/m 1,3 km/h (1 Bft) N 360 15,3 C 27,5 C 0,0 km/h (0 Bft)
07.09.2013 16:20 24,4 C 58 % 1021,9 hPa 0,0 l/m 1,8 km/h (1 Bft) W-SW 247 15,6 C 28,0 C 7,2 km/h (2 Bft)
07.09.2013 16:25 24,6 C 57 % 1021,9 hPa 0,0 l/m 2,7 km/h (1 Bft) N 360 15,5 C 28,0 C 3,5 km/h (1 Bft)
07.09.2013 16:30 24,2 C 57 % 1021,9 hPa 0,0 l/m 2,9 km/h (1 Bft) NW 315 15,1 C 28,0 C 1,8 km/h (1 Bft)
07.09.2013 16:35 24,3 C 58 % 1021,9 hPa 0,0 l/m 3,5 km/h (1 Bft) N 360 15,5 C 27,8 C 7,2 km/h (2 Bft)
07.09.2013 16:40 23,7 C 59 % 1021,6 hPa 0,0 l/m 4,5 km/h (1 Bft) W-NW 292 15,2 C 27,0 C 3,9 km/h (1 Bft)
07.09.2013 16:45 22,9 C 62 % 1021,6 hPa 0,0 l/m 3,7 km/h (1 Bft) W-NW 292 15,2 C 25,6 C 4,3 km/h (1 Bft)
07.09.2013 16:50 22,8 C 63 % 1021,6 hPa 0,0 l/m 2,6 km/h (1 Bft) O 90 15,4 C 25,0 C 1,9 km/h (1 Bft)
07.09.2013 16:55 23,0 C 62 % 1021,6 hPa 0,0 l/m 1,1 km/h (1 Bft) N-NW 337 15,3 C 25,8 C 0,0 km/h (0 Bft)
07.09.2013 17:00 22,9 C 65 % 1021,3 hPa 0,0 l/m 0,6 km/h (0 Bft) W-NW 292 16,0 C 26,6 C 3,5 km/h (1 Bft)
07.09.2013 17:05 23,2 C 62 % 1021,3 hPa 0,0 l/m 1,3 km/h (1 Bft) NO 45 15,5 C 27,8 C 1,6 km/h (1 Bft)
07.09.2013 17:10 23,0 C 62 % 1021,3 hPa 0,0 l/m 1,6 km/h (1 Bft) N 360 15,3 C 28,2 C 3,2 km/h (1 Bft)
07.09.2013 17:15 22,7 C 65 % 1021,3 hPa 0,0 l/m 2,9 km/h (1 Bft) W 270 15,8 C 27,3 C 3,1 km/h (1 Bft)
07.09.2013 17:20 22,7 C 65 % 1021,4 hPa 0,0 l/m 3,5 km/h (1 Bft) N-NO 22 15,8 C 27,1 C 3,4 km/h (1 Bft)
07.09.2013 17:25 22,9 C 65 % 1021,4 hPa 0,0 l/m 2,7 km/h (1 Bft) N 360 16,0 C 26,6 C 2,6 km/h (1 Bft)
07.09.2013 17:30 23,0 C 64 % 1021,4 hPa 0,0 l/m 2,6 km/h (1 Bft) N-NO 22 15,8 C 26,8 C 3,7 km/h (1 Bft)
07.09.2013 17:35 22,7 C 66 % 1021,4 hPa 0,0 l/m 2,3 km/h (1 Bft) N 360 16,0 C 26,3 C 4,8 km/h (1 Bft)
07.09.2013 17:40 22,5 C 66 % 1021,1 hPa 0,0 l/m 1,9 km/h (1 Bft) N 360 15,8 C 25,6 C 3,2 km/h (1 Bft)
07.09.2013 17:45 22,3 C 67 % 1021,1 hPa 0,0 l/m 1,6 km/h (1 Bft) O-NO 67 15,9 C 24,9 C 3,9 km/h (1 Bft)
07.09.2013 17:50 22,3 C 67 % 1021,1 hPa 0,0 l/m 1,6 km/h (1 Bft) NO 45 15,9 C 24,4 C 3,4 km/h (1 Bft)
07.09.2013 17:55 22,2 C 67 % 1021,1 hPa 0,0 l/m 1,9 km/h (1 Bft) N 360 15,8 C 24,2 C 3,1 km/h (1 Bft)
07.09.2013 18:00 22,0 C 67 % 1020,9 hPa 0,0 l/m 1,8 km/h (1 Bft) N-NO 22 15,6 C 24,0 C 2,3 km/h (1 Bft)
07.09.2013 18:05 21,9 C 68 % 1020,9 hPa 0,0 l/m 1,1 km/h (1 Bft) NO 45 15,7 C 24,1 C 0,0 km/h (0 Bft)
07.09.2013 18:10 22,1 C 67 % 1020,9 hPa 0,0 l/m 0,5 km/h (0 Bft) O 90 15,7 C 24,9 C 0,0 km/h (0 Bft)
07.09.2013 18:15 22,2 C 68 % 1020,9 hPa 0,0 l/m 0,2 km/h (0 Bft) O-NO 67 16,0 C 25,4 C 0,0 km/h (0 Bft)
07.09.2013 18:20 22,2 C 68 % 1020,9 hPa 0,0 l/m 0,2 km/h (0 Bft) NO 45 16,0 C 25,3 C 1,8 km/h (1 Bft)
07.09.2013 18:25 22,1 C 68 % 1020,9 hPa 0,0 l/m 0,2 km/h (0 Bft) O-NO 67 15,9 C 24,8 C 0,0 km/h (0 Bft)
07.09.2013 18:30 22,0 C 69 % 1020,9 hPa 0,0 l/m 0,2 km/h (0 Bft) W 270 16,0 C 24,4 C 0,0 km/h (0 Bft)
07.09.2013 18:35 21,9 C 69 % 1020,9 hPa 0,0 l/m 0,0 km/h (0 Bft) O 90 15,9 C 24,1 C 0,0 km/h (0 Bft)
07.09.2013 18:40 21,8 C 69 % 1021,1 hPa 0,0 l/m 0,2 km/h (0 Bft) O-NO 67 15,9 C 24,0 C 2,1 km/h (1 Bft)
07.09.2013 18:45 21,7 C 69 % 1021,1 hPa 0,0 l/m 0,6 km/h (0 Bft) O 90 15,8 C 24,3 C 0,0 km/h (0 Bft)
07.09.2013 18:50 21,6 C 69 % 1021,1 hPa 0,0 l/m 1,3 km/h (1 Bft) O-NO 67 15,7 C 24,1 C 3,4 km/h (1 Bft)
07.09.2013 18:55 21,4 C 70 % 1021,1 hPa 0,0 l/m 2,4 km/h (1 Bft) NO 45 15,7 C 23,2 C 3,1 km/h (1 Bft)
07.09.2013 19:00 21,0 C 72 % 1020,9 hPa 0,0 l/m 2,9 km/h (1 Bft) NO 45 15,8 C 22,8 C 3,1 km/h (1 Bft)
07.09.2013 19:05 20,7 C 73 % 1020,9 hPa 0,0 l/m 1,9 km/h (1 Bft) O-NO 67 15,7 C 22,3 C 0,0 km/h (0 Bft)
07.09.2013 19:10 20,5 C 73 % 1020,9 hPa 0,0 l/m 1,4 km/h (1 Bft) NO 45 15,5 C 22,0 C 4,0 km/h (1 Bft)
07.09.2013 19:15 20,4 C 74 % 1020,9 hPa 0,0 l/m 2,4 km/h (1 Bft) O-NO 67 15,6 C 21,4 C 3,5 km/h (1 Bft)
07.09.2013 19:20 20,2 C 75 % 1020,9 hPa 0,0 l/m 3,1 km/h (1 Bft) NO 45 15,6 C 21,1 C 0,0 km/h (0 Bft)
07.09.2013 19:25 19,6 C 76 % 1020,9 hPa 0,0 l/m 1,4 km/h (1 Bft) O 90 15,2 C 20,5 C 1,6 km/h (1 Bft)
07.09.2013 19:30 19,4 C 77 % 1020,9 hPa 0,0 l/m 0,8 km/h (0 Bft) O 90 15,3 C 20,1 C 2,1 km/h (1 Bft)
07.09.2013 19:35 19,5 C 77 % 1020,9 hPa 0,0 l/m 2,4 km/h (1 Bft) O-NO 67 15,4 C 19,6 C 3,1 km/h (1 Bft)
07.09.2013 19:40 19,5 C 77 % 1020,9 hPa 0,0 l/m 2,7 km/h (1 Bft) O 90 15,4 C 19,5 C 1,8 km/h (1 Bft)
07.09.2013 19:45 19,1 C 78 % 1020,9 hPa 0,0 l/m 1,9 km/h (1 Bft) O-SO 112 15,2 C 19,3 C 2,6 km/h (1 Bft)
07.09.2013 19:50 19,2 C 79 % 1020,9 hPa 0,0 l/m 1,8 km/h (1 Bft) O-NO 67 15,5 C 19,3 C 3,4 km/h (1 Bft)
07.09.2013 19:55 19,2 C 79 % 1020,9 hPa 0,0 l/m 1,9 km/h (1 Bft) O 90 15,5 C 19,3 C 0,0 km/h (0 Bft)
07.09.2013 20:00 19,1 C 80 % 1020,8 hPa 0,0 l/m 1,6 km/h (1 Bft) O 90 15,6 C 19,3 C 0,0 km/h (0 Bft)
07.09.2013 20:05 19,2 C 80 % 1020,8 hPa 0,0 l/m 0,6 km/h (0 Bft) NO 45 15,7 C 19,3 C 0,0 km/h (0 Bft)
07.09.2013 20:10 19,2 C 79 % 1020,8 hPa 0,0 l/m 0,8 km/h (0 Bft) O 90 15,5 C 19,2 C 0,0 km/h (0 Bft)
07.09.2013 20:15 18,6 C 79 % 1020,8 hPa 0,0 l/m 0,2 km/h (0 Bft) O-SO 112 14,9 C 19,0 C 0,0 km/h (0 Bft)
07.09.2013 20:20 18,4 C 79 % 1020,6 hPa 0,0 l/m 0,0 km/h (0 Bft) O-NO 67 14,7 C 18,7 C 0,0 km/h (0 Bft)
07.09.2013 20:25 18,2 C 80 % 1020,6 hPa 0,0 l/m 0,0 km/h (0 Bft) NO 45 14,7 C 18,3 C 0,0 km/h (0 Bft)
07.09.2013 20:30 18,1 C 80 % 1020,6 hPa 0,0 l/m 0,2 km/h (0 Bft) NO 45 14,6 C 18,1 C 1,6 km/h (1 Bft)
07.09.2013 20:35 18,0 C 81 % 1020,6 hPa 0,0 l/m 0,6 km/h (0 Bft) O-SO 112 14,7 C 17,9 C 2,4 km/h (1 Bft)
07.09.2013 20:40 18,0 C 80 % 1020,9 hPa 0,0 l/m 1,3 km/h (1 Bft) O 90 14,5 C 17,8 C 1,8 km/h (1 Bft)
07.09.2013 20:45 18,1 C 81 % 1020,9 hPa 0,0 l/m 2,6 km/h (1 Bft) O-NO 67 14,8 C 17,8 C 4,2 km/h (1 Bft)
07.09.2013 20:50 18,1 C 82 % 1020,9 hPa 0,0 l/m 3,1 km/h (1 Bft) O-NO 67 15,0 C 17,8 C 4,0 km/h (1 Bft)
07.09.2013 20:55 17,8 C 82 % 1020,9 hPa 0,0 l/m 3,1 km/h (1 Bft) O-SO 112 14,7 C 17,8 C 2,9 km/h (1 Bft)
07.09.2013 21:00 17,8 C 83 % 1020,9 hPa 0,0 l/m 2,7 km/h (1 Bft) O 90 14,9 C 17,7 C 2,4 km/h (1 Bft)
07.09.2013 21:05 17,8 C 84 % 1020,9 hPa 0,0 l/m 2,4 km/h (1 Bft) NO 45 15,1 C 17,6 C 3,7 km/h (1 Bft)
07.09.2013 21:10 17,4 C 84 % 1020,9 hPa 0,0 l/m 1,6 km/h (1 Bft) NO 45 14,7 C 17,5 C 0,0 km/h (0 Bft)
07.09.2013 21:15 17,2 C 83 % 1020,9 hPa 0,0 l/m 0,5 km/h (0 Bft) O 90 14,3 C 17,3 C 0,0 km/h (0 Bft)
07.09.2013 21:20 17,5 C 84 % 1020,8 hPa 0,0 l/m 0,8 km/h (0 Bft) NO 45 14,8 C 17,2 C 3,7 km/h (1 Bft)
07.09.2013 21:25 17,7 C 84 % 1020,8 hPa 0,0 l/m 2,1 km/h (1 Bft) O-SO 112 15,0 C 17,2 C 0,0 km/h (0 Bft)
07.09.2013 21:30 17,1 C 83 % 1020,8 hPa 0,0 l/m 1,6 km/h (1 Bft) NO 45 14,2 C 17,0 C 0,0 km/h (0 Bft)
07.09.2013 21:35 16,8 C 84 % 1020,8 hPa 0,0 l/m 0,3 km/h (0 Bft) O 90 14,1 C 16,7 C 2,7 km/h (1 Bft)
07.09.2013 21:40 16,8 C 84 % 1020,6 hPa 0,0 l/m 1,1 km/h (1 Bft) O-SO 112 14,1 C 16,5 C 2,1 km/h (1 Bft)
07.09.2013 21:45 16,9 C 85 % 1020,6 hPa 0,0 l/m 2,7 km/h (1 Bft) NO 45 14,4 C 16,4 C 2,1 km/h (1 Bft)
07.09.2013 21:50 16,5 C 85 % 1020,6 hPa 0,0 l/m 1,9 km/h (1 Bft) O-NO 67 14,0 C 16,3 C 0,0 km/h (0 Bft)
07.09.2013 21:55 16,8 C 86 % 1020,6 hPa 0,0 l/m 2,4 km/h (1 Bft) O 90 14,4 C 16,3 C 5,3 km/h (1 Bft)
07.09.2013 22:00 16,8 C 86 % 1020,3 hPa 0,0 l/m 3,5 km/h (1 Bft) O 90 14,4 C 16,4 C 3,1 km/h (1 Bft)
07.09.2013 22:05 16,4 C 85 % 1020,3 hPa 0,0 l/m 2,6 km/h (1 Bft) O-SO 112 13,9 C 16,2 C 0,0 km/h (0 Bft)
07.09.2013 22:10 16,1 C 85 % 1020,3 hPa 0,0 l/m 1,0 km/h (0 Bft) NO 45 13,6 C 16,0 C 0,0 km/h (0 Bft)
07.09.2013 22:15 16,0 C 85 % 1020,3 hPa 0,0 l/m 0,0 km/h (0 Bft) NO 45 13,5 C 15,8 C 0,0 km/h (0 Bft)
07.09.2013 22:20 15,9 C 86 % 1020,1 hPa 0,0 l/m 0,2 km/h (0 Bft) O-NO 67 13,6 C 15,7 C 1,8 km/h (1 Bft)
07.09.2013 22:25 15,9 C 86 % 1020,1 hPa 0,0 l/m 0,2 km/h (0 Bft) O 90 13,6 C 15,6 C 1,9 km/h (1 Bft)
07.09.2013 22:30 15,9 C 86 % 1020,1 hPa 0,0 l/m 0,2 km/h (0 Bft) O-SO 112 13,6 C 15,6 C 0,0 km/h (0 Bft)
07.09.2013 22:35 15,4 C 86 % 1020,1 hPa 0,0 l/m 0,0 km/h (0 Bft) O-SO 112 13,1 C 15,4 C 0,0 km/h (0 Bft)
07.09.2013 22:40 15,5 C 87 % 1020,0 hPa 0,0 l/m 0,2 km/h (0 Bft) O 90 13,3 C 15,2 C 2,6 km/h (1 Bft)
07.09.2013 22:45 16,3 C 87 % 1020,0 hPa 0,0 l/m 1,3 km/h (1 Bft) O 90 14,1 C 15,5 C 0,0 km/h (0 Bft)
07.09.2013 22:50 15,8 C 87 % 1020,0 hPa 0,0 l/m 1,3 km/h (1 Bft) O-SO 112 13,6 C 15,4 C 0,0 km/h (0 Bft)
07.09.2013 22:55 15,2 C 86 % 1020,0 hPa 0,0 l/m 0,0 km/h (0 Bft) O-SO 112 12,9 C 15,2 C 0,0 km/h (0 Bft)
07.09.2013 23:00 14,9 C 87 % 1019,9 hPa 0,0 l/m 0,0 km/h (0 Bft) N 360 12,8 C 15,1 C 0,0 km/h (0 Bft)
07.09.2013 23:05 14,9 C 87 % 1019,9 hPa 0,0 l/m 0,0 km/h (0 Bft) O-NO 67 12,8 C 14,9 C 0,0 km/h (0 Bft)
07.09.2013 23:10 15,0 C 87 % 1019,9 hPa 0,0 l/m 0,0 km/h (0 Bft) O-SO 112 12,9 C 14,9 C 0,0 km/h (0 Bft)
07.09.2013 23:15 15,3 C 88 % 1019,9 hPa 0,0 l/m 1,3 km/h (1 Bft) O-NO 67 13,3 C 15,0 C 2,7 km/h (1 Bft)
07.09.2013 23:20 15,4 C 88 % 1019,6 hPa 0,0 l/m 1,9 km/h (1 Bft) N-NO 22 13,4 C 15,0 C 0,0 km/h (0 Bft)
07.09.2013 23:25 15,4 C 88 % 1019,6 hPa 0,0 l/m 1,1 km/h (1 Bft) O-SO 112 13,4 C 15,0 C 0,0 km/h (0 Bft)
07.09.2013 23:30 15,4 C 88 % 1019,6 hPa 0,0 l/m 0,3 km/h (0 Bft) O-SO 112 13,4 C 14,9 C 0,0 km/h (0 Bft)
07.09.2013 23:35 15,7 C 88 % 1019,6 hPa 0,0 l/m 1,1 km/h (1 Bft) O 90 13,7 C 14,9 C 2,6 km/h (1 Bft)
07.09.2013 23:40 15,3 C 88 % 1019,6 hPa 0,0 l/m 1,4 km/h (1 Bft) N 360 13,3 C 15,0 C 1,9 km/h (1 Bft)
07.09.2013 23:45 14,9 C 88 % 1019,6 hPa 0,0 l/m 0,5 km/h (0 Bft) N-NO 22 12,9 C 14,8 C 0,0 km/h (0 Bft)
07.09.2013 23:50 14,9 C 89 % 1019,6 hPa 0,0 l/m 0,2 km/h (0 Bft) N-NO 22 13,1 C 14,8 C 0,0 km/h (0 Bft)
07.09.2013 23:55 14,5 C 88 % 1019,6 hPa 0,0 l/m 0,0 km/h (0 Bft) N-NO 22 12,5 C 14,6 C 0,0 km/h (0 Bft)
_ Min-Zeit 06:55 14:35 00:34 - 23:55 - - 06:55 07:00 23:55
Minimum _ 11,9 C 43 % 1017,8 hPa - 0,0 km/h (0 Bft) - - 11,1 C 11,9 C 0,0 km/h (0 Bft)
_ Max-Zeit 14:15 07:15 12:15 23:55 12:10 - - 09:20 14:40 09:50
Maximum _ 27,3 C 95 % 1022,8 hPa 0,0 l/m 7,6 km/h
S (2 Bft)
- - 17,9 C 31,6 C 14,8 km/h
SO (3 Bft)
Durchschnitt _ 19,2 C 75 % 1020,4 hPa #0,0 l/m 2,0 km/h (1 Bft) O - 14,2 C 19,9 C 2,7 km/h (1 Bft)